Flag for Japan Weather past 2 weeks in Kawasaki, Japan

68 °F


Feels Like: 68 °F
Forecast: 64 / 68 °F
Wind: 7 mph from East

Location: Tokyo International Airport

Current Time: Oct 10, 2015 at 11:25:00 AM

Latest Report: Oct 10, 2015 at 11:00 AM

Visibility: 6 mi

Pressure: 29.92 "Hg

Humidity: 69%

Dew point: 57 °F

Location of KawasakiLocation

Historic Weather in Kawasaki — Graph


Kawasaki temperature yesterday

Maximum temperature yesterday: 77 °F (at 12:00 PM)
Minimum temperature yesterday: 63 °F (at 3:00 AM)
Average temperature yesterday: 70 °F

Past Weeks' High & Low Weather Summary

High82 °F (Oct 2, 2:30 PM)100% (Sep 25, 10:00 AM)30.24 "Hg (Sep 25, 10:00 AM)
Low59 °F (Oct 7, 4:30 AM)25% (Oct 8, 12:30 PM)29.36 "Hg (Oct 2, 3:30 AM)
Average70 °F67%29.90 "Hg
* Reported Sep 25 10:00 AM — Oct 10 10:00 AM, Kawasaki, Weather by CustomWeather, © 2015

Note: Actual official high and low records may vary slightly from our data, if they occured in-between our weather recording intervals... More about our weather records


Kawasaki weather history for previous 24 hours

Time TempWeatherWind HumidityBarometerVisibility
10:00 AM
Sat, Oct 10
66 °FClear.3 mph73%29.92 "Hg6 mi
9:30 AM66 °FPartly sunny.2 mph73%29.92 "HgN/A
9:00 AM66 °FClear.5 mph73%29.92 "Hg5 mi
8:30 AM66 °FClear.6 mph73%29.92 "Hg5 mi
8:00 AM64 °FClear.3 mph73%29.89 "Hg4 mi
7:30 AM63 °FBroken clouds.7 mph77%29.89 "Hg4 mi
7:00 AM63 °FPartly sunny.6 mph77%29.89 "Hg4 mi
6:00 AM61 °FScattered clouds.5 mph83%29.89 "Hg5 mi
5:30 AM63 °FPassing clouds.3 mph73%29.86 "HgN/A
5:00 AM63 °FClear.5 mph77%29.86 "Hg10 mi
4:30 AM63 °FClear.5 mph73%29.86 "Hg10 mi
4:00 AM63 °FClear.3 mph77%29.83 "Hg10 mi
3:30 AM63 °FClear.6 mph77%29.83 "Hg10 mi
3:00 AM63 °FClear.8 mph77%29.83 "Hg10 mi
2:30 AM64 °FClear.6 mph73%29.83 "Hg10 mi
2:00 AM64 °FClear.5 mph73%29.83 "Hg10 mi
1:30 AM64 °FClear.8 mph73%29.80 "Hg10 mi
1:00 AM66 °FPassing clouds.6 mph83%29.80 "HgN/A
12:30 AM68 °FPassing clouds.3 mph73%29.80 "HgN/A
11:30 PM
Fri, Oct 9
66 °FClear.8 mph78%29.80 "Hg10 mi
11:00 PM68 °FClear.9 mph73%29.80 "Hg10 mi
10:30 PM68 °FClear.10 mph73%29.80 "Hg10 mi
10:00 PM68 °FClear.13 mph73%29.80 "Hg10 mi
9:30 PM68 °FClear.9 mph73%29.80 "Hg10 mi
9:00 PM68 °FClear.12 mph73%29.80 "Hg10 mi
8:30 PM72 °FClear.13 mph61%29.80 "Hg10 mi
8:00 PM70 °FClear.14 mph64%29.77 "Hg10 mi
7:30 PM70 °FClear.16 mph69%29.80 "Hg10 mi
7:00 PM70 °FClear.13 mph69%29.77 "Hg10 mi
6:30 PM72 °FPassing clouds.14 mph61%29.77 "HgN/A
6:00 PM72 °FPassing clouds.16 mph57%29.77 "HgN/A
5:30 PM72 °FPassing clouds.16 mph53%29.77 "HgN/A
5:00 PM72 °FPartly sunny.20 mph53%29.77 "HgN/A
4:30 PM72 °FScattered clouds.16 mph53%29.74 "HgN/A
4:00 PM73 °FScattered clouds.17 mph44%29.74 "HgN/A
3:30 PM75 °FScattered clouds.16 mph44%29.74 "HgN/A
3:00 PM75 °FScattered clouds.17 mph39%29.74 "HgN/A
2:30 PM75 °FScattered clouds.16 mph39%29.71 "HgN/A
2:00 PM75 °FPartly sunny.16 mph41%29.71 "HgN/A
1:30 PM77 °FPartly sunny.16 mph39%29.71 "HgN/A
1:00 PM73 °FPartly sunny.17 mph44%29.71 "HgN/A
12:30 PM75 °FScattered clouds.17 mph44%29.71 "HgN/A
12:00 PM77 °FScattered clouds.17 mph39%29.71 "HgN/A
11:30 AM75 °FScattered clouds.15 mph41%29.71 "HgN/A
11:00 AM75 °FPassing clouds.8 mph39%29.71 "HgN/A
Weather by CustomWeather, © 2015

See weather overviewHow to use our weather pages